ATLAS 5 CENTAUR DEB, 43984

Orbit data source: Space-Track

ATLAS 5 CENTAUR DEB, 43984 is space debris in HEO originally from a launch on Wed, 17 Sep 2014 UTC launched from the Air Force Eastern Test Range (AFETR). Debris objects in space refer to the collection of defunct objects orbiting the Earth. Examples of debris include non-operational satellites, rocket bodies, and fragments generated from explosions, collisions, or faulty payload assembly.

Not visible in the next 10 days
Identifier
43984, 2014-055AP
Orbit
HEO
Country
Flag of USUS
Related business
Flag of USUnited Launch Alliance/Lockheed Martin (US)
Manufacturer
Unknown
Mission
Spacecraft
Bus & Motor
Unknown
Mass
Unknown
Launch date (UTC)
2014-09-17 (12 years ago)
Launch vehicle
Unknown
Launch site
Air Force Eastern Test Range (AFETR)
Object type
Payload
Rocket body
Debris
Shape & HBR
Unknown shape, 1.1 m
Radar Cross Section
Large (>1 m²)

Expand to show TLE details & history
Last TLE update: 3 days ago

TLE from 3 days ago
0 ATLAS 5 CENTAUR DEB
1 43984U 14055AP  26234.76304421 -.00000153  00000-0  00000-0 0  9997
2 43984  21.1350  85.4833 5104269 267.5604  35.6984  1.91675467 55708
Epoch: 2026-08-22T18:18Z
TLE epoch observation values (Epoch: 2026-08-22T18:18:47.019Z)
Latitude
-0°
Longitude
-160.19529°
Altitude
14,330.245 km
Speed
4.892 km/s
True Right ascension
05h 42m 16s
True Declination
0° 00' 00"
Sunlit
Object was in daylight at epoch
Visualization orbit readout
Latitude
Unknown
Longitude
Unknown
Altitude
Unknown
Speed
Unknown
Apparent Right ascension
Unknown
Apparent Declination
Unknown
Sunlit
N/A
Visualization observer readout
Local Sidereal Time
03:28:29
Azimuth
Unknown
Elevation
Unknown
Doppler factor
Unknown
Orbital elements
Apogee altitude
34,973.221 km
Perigee altitude
7,025.036 km
Semi-major axis
27,377.265 km
Eccentricity
0.51043
Inclination
21.135°
RAAN
85.4833°
Arg. of periapsis
267.5604°
True anomaly
92.36968°
Mean anomaly
35.6984°
Eccentric anomaly
61.36728°
Mean motion
0.47914 °/min
Orbital period
751.35 mins
BSTAR
0
Loading maneuver chart data...
Computing Atmospheric mass density...

Documentation

Showing up to 5 results
|